Location: Asheville, NC
(35.6000°N, 82.5500°W)
Time: 19:41:31
(UTC-04:00)

BEESAT 2 - Pass Details

Date: 18 March 2018
Orbit: 502 x 533 km, 64.9° (Epoch: 23 June)

Event Time Altitude Azimuth Distance (km) Brightness Sun altitude
Rises 20:29:46 0° 231° (SW) 2,636 ? -10.8°
Reaches altitude 10° 20:32:07 10° 242° (WSW) 1,757 ? -11.3°
Maximum altitude 20:35:37 30° 305° (NW) 957 ? -12.0°
Drops below altitude 10° 20:39:10 10° 8° (N) 1,780 ? -12.7°
Sets 20:41:35 0° 20° (NNE) 2,677 ? -13.2°
